Location: Beddau
(51.5575°N, 3.3561°W)
Time: 10:34:00
(UTC+00:00)

COSMO-SKYMED 1 - Pass Details

Date: 03 March 2021
Orbit: 621 x 623 km, 97.9° (Epoch: 16 April)

Event Time Altitude Azimuth Distance (km) Brightness Sun altitude
Rises 19:18:51 0° 7° (N) 2,920 6.0 -13.4°
Reaches altitude 10° 19:21:11 10° 359° (N) 2,008 5.3 -13.8°
Maximum altitude 19:25:08 35° 294° (WNW) 1,018 4.3 -14.4°
Drops below altitude 10° 19:29:05 10° 229° (SW) 1,993 5.7 -15.0°
Sets 19:31:23 0° 221° (SW) 2,895 6.5 -15.3°
